[[{"header":{"parameterUnit":"m.s-1","parameterCategory":1,"la1":30.2991,"la2":30.254,"lo1":-89.0895,"lo2":-89.0444,"dy":0.0017,"dx":0.0017,"nx":28,"ny":28,"refTime":"2024-02-15T09:00:00:Z","depth":0,"parameterNumber":2,"parameterNumberName":"U-component_of_WINDS"},"data":[0,0,0,0,0,0,0,0,0,0,0,0,0,0,0,0,0,0,0,0,0,0,0,0,0,0,0,0,0,0,0,0,0,0,0,0,0,0,0,0,0,0,0,0,0,0,0,0,0,0,0,0,0,0,0,0,0,0,-0.7362,-0.7363,0,-0.7409,-0.741,-0.741,-0.7378,-0.7376,-0.7375,-0.7373,-0.7426,-0.7429,-0.7432,0,0,0,0,0,0,0,0,0,0,0,0,0,-0.725,-0.7252,-0.7362,-0.7363,-0.7364,-0.7409,-0.741,-0.741,-0.7378,-0.7376,-0.7374,-0.7373,-0.7425,-0.7429,-0.7432,0,0,0,0,0,0,0,0,0,0,0,0,0,-0.7298,-0.7253,-0.7362,-0.7353,-0.7352,-0.7409,-0.741,-0.741,-0.7378,-0.7376,-0.7374,-0.7372,-0.7424,-0.7428,-0.7432,-0.7502,0,0,-0.7445,-0.7447,0,0,0,0,0,0,0,0,-0.7295,-0.7302,-0.7354,-0.7354,-0.7353,-0.7385,-0.7389,-0.7441,-0.7379,-0.7369,-0.7373,-0.7371,-0.7415,-0.742,-0.7433,-0.7505,-0.7507,-0.7445,-0.7448,-0.745,-0.7451,0,0,0,0,0,0,0,-0.7292,-0.73,-0.7381,-0.7354,-0.7354,-0.7348,-0.7352,-0.7399,-0.7404,-0.7369,-0.7367,-0.7373,-0.7414,-0.7429,-0.7434,-0.7508,-0.7445,-0.7449,-0.7452,-0.7453,-0.7639,-0.7641,0,0,0,0,0,0,-0.7289,-0.7297,-0.738,-0.7382,-0.7318,-0.7352,-0.7356,-0.7377,-0.7403,-0.7405,-0.7375,-0.7371,-0.7423,-0.7429,-0.7436,-0.752,-0.745,-0.7454,-0.7456,-0.7637,-0.764,-0.7642,0,0,0,0,0,0,-0.7287,-0.7297,-0.7378,-0.7339,-0.7349,-0.7356,-0.738,-0.7379,-0.7394,-0.7407,-0.7408,-0.7389,-0.7422,-0.743,-0.7486,-0.7521,-0.7456,-0.7459,-0.7634,-0.7638,-0.7641,-0.7688,0,0,0,0,0,0,-0.7284,-0.7296,-0.7322,-0.734,-0.7351,-0.7425,-0.7382,-0.7382,-0.7401,-0.7397,-0.7421,-0.7423,-0.7421,-0.748,-0.749,-0.7526,-0.7463,-0.7631,-0.7635,-0.764,-0.7683,-0.7693,-0.7701,0,0,0,0,0,-0.728,-0.7334,-0.7323,-0.7333,-0.7383,-0.7427,-0.7434,-0.7429,-0.7404,-0.7431,-0.7439,-0.7422,-0.7515,-0.7486,-0.7497,-0.7535,-0.7628,-0.7634,-0.7639,-0.7679,-0.7691,-0.7701,0,0,0,0,0,0,-0.7321,-0.7336,-0.7324,-0.7386,-0.7405,-0.7422,-0.7455,-0.7442,-0.747,-0.7465,-0.746,-0.7466,-0.7524,-0.7535,-0.7501,-0.7604,-0.7568,-0.7576,-0.7595,-0.7606,-0.7614,-0.7611,-0.7466,0,0,0,0,0,-0.7337,-0.737,-0.7382,-0.7436,-0.7446,-0.7449,-0.7468,-0.7462,-0.7483,-0.7492,-0.7504,-0.7526,-0.756,-0.7583,-0.7616,-0.7684,-0.7689,-0.7716,-0.7724,-0.7731,-0.7739,-0.7777,-0.7789,-0.766,-0.766,-0.766,0,0,-0.7372,-0.7384,-0.7405,-0.7444,-0.7459,-0.7495,-0.7456,-0.7496,-0.7523,-0.7499,-0.7551,-0.7561,-0.7585,-0.7648,-0.7676,-0.7659,-0.7775,-0.7738,-0.7744,-0.7748,-0.7783,-0.7796,-0.7806,-0.7664,-0.7663,-0.7663,0,0,-0.7452,-0.7464,-0.751,-0.7525,-0.7547,-0.7548,-0.7559,-0.7578,-0.7583,-0.7635,-0.7617,-0.765,-0.7709,-0.7727,-0.7744,-0.7831,-0.7817,-0.7842,-0.7888,-0.7925,-0.7935,-0.7944,-0.7976,-0.7988,-0.7849,-0.7849,-0.7849,0,-0.7493,-0.7544,-0.7536,-0.7577,-0.7595,-0.7572,-0.7619,-0.7635,-0.7667,-0.768,-0.766,-0.7733,-0.7748,-0.7815,-0.7836,-0.785,-0.7863,-0.784,-0.7934,-0.7943,-0.7951,-0.7982,-0.7994,-0.7852,-0.7852,-0.7851,-0.7851,0,-0.7593,-0.763,-0.7664,-0.7694,-0.7716,-0.776,-0.7759,-0.7782,-0.7775,-0.7779,-0.7833,-0.785,-0.7885,-0.79,-0.7894,-0.7966,-0.7955,-0.7934,-0.7899,-0.7967,-0.7995,-0.8007,-0.7856,-0.7855,-0.7854,-0.7854,0,0,-0.7703,-0.7726,-0.7739,-0.7752,-0.7774,-0.7803,-0.7846,-0.7879,-0.79,-0.7922,-0.7959,-0.8009,-0.799,-0.801,-0.8005,-0.8037,-0.8106,-0.8013,-0.8013,-0.8031,-0.8187,-0.8204,-0.8217,-0.8096,-0.8098,-0.81,-0.8186,0,-0.7786,-0.7859,-0.7852,-0.7923,-0.7957,-0.7936,-0.7973,-0.7992,-0.7996,-0.8027,-0.8033,-0.8069,-0.804,-0.8052,-0.8083,-0.8091,-0.8137,-0.8084,-0.8132,-0.8134,-0.8128,-0.8232,-0.8249,-0.8329,-0.8197,-0.8199,-0.82,0,-0.7892,-0.7917,-0.799,-0.8007,-0.8021,-0.8055,-0.8084,-0.8113,-0.8134,-0.8135,-0.8156,-0.8146,-0.8191,-0.8153,-0.8216,-0.818,-0.8199,-0.8206,-0.8209,-0.8214,-0.8172,-0.8241,-0.8355,-0.8367,-0.8217,-0.8216,-0.8215,0,-0.7966,-0.8018,-0.8068,-0.808,-0.8101,-0.8125,-0.8135,-0.8153,-0.8173,-0.8199,-0.8213,-0.8244,-0.8262,-0.8287,-0.8287,-0.8259,-0.835,-0.8312,-0.8354,-0.8354,-0.8376,-0.8375,-0.8495,-0.8386,-0.8386,-0.8385,-0.8385,0,-0.806,-0.8106,-0.8102,-0.8133,-0.8184,-0.8176,-0.8228,-0.8235,-0.8251,-0.8285,-0.8268,-0.83,-0.8296,-0.8329,-0.8329,-0.8381,-0.8389,-0.8393,-0.8392,-0.8395,-0.8395,-0.8408,-0.8403,-0.8389,-0.8388,-0.8387,-0.8387,0,-0.8152,-0.8151,-0.8205,-0.8219,-0.8223,-0.8261,-0.8274,-0.8304,-0.8306,-0.8349,-0.8359,-0.8364,-0.8401,-0.8402,-0.8446,-0.8445,-0.851,-0.8502,-0.8502,-0.8501,-0.8544,-0.854,-0.8678,-0.8696,-0.8574,-0.8575,-0.8576,0,-0.8213,-0.8247,-0.8265,-0.8285,-0.8296,-0.8329,-0.8349,-0.8343,-0.8364,-0.839,-0.8418,-0.8453,-0.8481,-0.8542,-0.8551,-0.8584,-0.8578,-0.8624,-0.8583,-0.8585,-0.8581,-0.8579,-0.8583,-0.8633,-0.8634,-0.8635,-0.8636,0,-0.8321,-0.8318,-0.8347,-0.8375,-0.8399,-0.8422,-0.8442,-0.846,-0.8456,-0.8482,-0.8519,-0.854,-0.8584,-0.862,-0.8652,-0.8664,-0.865,-0.8649,-0.866,-0.8664,-0.8663,-0.8665,-0.8526,-0.8646,-0.8645,-0.8644,-0.8644,-0.8644,-0.84,-0.843,-0.8446,-0.8479,-0.8493,-0.8513,-0.8542,-0.8548,-0.8578,-0.8612,-0.8606,-0.8648,-0.8668,-0.8709,-0.8723,-0.8757,-0.8741,-0.8758,-0.8763,-0.8767,-0.8772,-0.8656,-0.8763,-0.8762,-0.8762,-0.8762,-0.8762,0,-0.8508,-0.8517,-0.8547,-0.8576,-0.8602,-0.8584,-0.8606,-0.8629,-0.8666,-0.8685,-0.8712,-0.8755,-0.879,-0.88,-0.8834,-0.8859,-0.8854,-0.8868,-0.8867,-0.887,-0.8784,-0.8771,-0.8872,-0.8872,-0.8872,-0.8872,-0.8872,-0.8872,-0.8567,-0.8617,-0.8617,-0.8674,-0.8683,-0.8723,-0.8737,-0.8755,-0.877,-0.8818,-0.8846,-0.8852,-0.8868,-0.8903,-0.8934,-0.8936,-0.895,-0.8968,-0.8968,-0.8887,-0.8876,-0.8866,-0.8853,-0.897,-0.897,-0.9051,-0.9052,-0.9053]},{"header":{"parameterUnit":"m.s-1","parameterCategory":1,"la1":30.2991,"la2":30.254,"lo1":-89.0895,"lo2":-89.0444,"dy":0.0017,"dx":0.0017,"nx":28,"ny":28,"refTime":"2024-02-15T09:00:00:Z","depth":0,"parameterNumber":3,"parameterNumberName":"V-component_of_WINDS"},"data":[0,0,0,0,0,0,0,0,0,0,0,0,0,0,0,0,0,0,0,0,0,0,0,0,0,0,0,0,0,0,0,0,0,0,0,0,0,0,0,0,0,0,0,0,0,0,0,0,0,0,0,0,0,0,0,0,0,0,-1.3428,-1.3429,0,-1.3467,-1.3467,-1.3468,-1.3455,-1.3455,-1.3454,-1.3453,-1.3491,-1.3492,-1.3494,0,0,0,0,0,0,0,0,0,0,0,0,0,-1.3343,-1.3345,-1.3428,-1.3429,-1.3429,-1.3467,-1.3467,-1.3468,-1.3455,-1.3454,-1.3453,-1.3453,-1.349,-1.3492,-1.3494,0,0,0,0,0,0,0,0,0,0,0,0,0,-1.3381,-1.3346,-1.3428,-1.3428,-1.3428,-1.3467,-1.3467,-1.3468,-1.3456,-1.3454,-1.3453,-1.3452,-1.3489,-1.3492,-1.3495,-1.3536,0,0,-1.3503,-1.3504,0,0,0,0,0,0,0,0,-1.3379,-1.3384,-1.3427,-1.3428,-1.3428,-1.3455,-1.3451,-1.3491,-1.3456,-1.3445,-1.3453,-1.3451,-1.348,-1.3483,-1.3493,-1.3537,-1.3539,-1.3503,-1.3505,-1.3506,-1.3506,0,0,0,0,0,0,0,-1.3376,-1.3382,-1.3444,-1.3428,-1.3429,-1.3425,-1.3429,-1.3459,-1.3469,-1.3446,-1.3445,-1.345,-1.348,-1.349,-1.3494,-1.354,-1.3503,-1.3505,-1.3507,-1.3508,-1.362,-1.3622,0,0,0,0,0,0,-1.3374,-1.338,-1.3442,-1.3445,-1.34,-1.3428,-1.3432,-1.3448,-1.3468,-1.347,-1.3451,-1.3449,-1.3487,-1.3491,-1.3495,-1.3545,-1.3506,-1.3508,-1.351,-1.3619,-1.3621,-1.3622,0,0,0,0,0,0,-1.3372,-1.3379,-1.3441,-1.3412,-1.342,-1.3431,-1.3448,-1.3449,-1.346,-1.3472,-1.3474,-1.346,-1.3486,-1.3491,-1.3526,-1.3546,-1.3509,-1.3512,-1.3617,-1.3619,-1.3621,-1.3644,0,0,0,0,0,0,-1.3369,-1.3379,-1.3394,-1.3413,-1.3421,-1.3471,-1.3449,-1.3451,-1.3465,-1.3463,-1.3481,-1.3483,-1.3485,-1.3522,-1.3529,-1.3549,-1.3514,-1.3615,-1.3618,-1.3621,-1.3642,-1.3647,-1.3651,0,0,0,0,0,-1.3366,-1.3399,-1.3395,-1.3403,-1.3442,-1.3472,-1.3477,-1.348,-1.3466,-1.3482,-1.349,-1.3483,-1.3543,-1.3526,-1.3533,-1.3554,-1.3614,-1.3617,-1.362,-1.364,-1.3646,-1.3651,0,0,0,0,0,0,-1.3382,-1.3401,-1.3397,-1.3437,-1.3453,-1.347,-1.349,-1.3486,-1.3506,-1.3503,-1.3505,-1.3509,-1.3545,-1.3553,-1.3533,-1.3596,-1.3577,-1.3581,-1.3589,-1.3595,-1.3599,-1.3596,-1.3516,0,0,0,0,0,-1.339,-1.3414,-1.3429,-1.3463,-1.3471,-1.3479,-1.3493,-1.3493,-1.351,-1.3517,-1.3527,-1.3544,-1.3566,-1.3581,-1.3602,-1.3643,-1.3647,-1.3662,-1.3666,-1.367,-1.3674,-1.3697,-1.3704,-1.3632,-1.3632,-1.3632,0,0,-1.3406,-1.342,-1.3435,-1.3466,-1.3479,-1.3503,-1.3485,-1.3512,-1.353,-1.352,-1.3554,-1.3563,-1.3581,-1.3619,-1.3636,-1.3627,-1.3695,-1.3674,-1.3677,-1.3679,-1.3701,-1.3708,-1.3714,-1.3635,-1.3634,-1.3634,0,0,-1.3449,-1.3462,-1.3492,-1.3505,-1.3525,-1.353,-1.3538,-1.3556,-1.3561,-1.3595,-1.3589,-1.361,-1.3649,-1.3663,-1.3674,-1.3724,-1.3718,-1.3731,-1.3756,-1.3778,-1.3783,-1.3788,-1.3806,-1.3812,-1.3735,-1.3735,-1.3735,0,-1.3467,-1.3504,-1.3507,-1.3535,-1.3549,-1.3542,-1.3572,-1.3585,-1.361,-1.362,-1.361,-1.3659,-1.3671,-1.3712,-1.3724,-1.3734,-1.3742,-1.3728,-1.3782,-1.3787,-1.3792,-1.3809,-1.3816,-1.3736,-1.3736,-1.3736,-1.3736,0,-1.3526,-1.3552,-1.3573,-1.3599,-1.3615,-1.3644,-1.3651,-1.3667,-1.3666,-1.3673,-1.3708,-1.3722,-1.3746,-1.3756,-1.3755,-1.3798,-1.3792,-1.3782,-1.3763,-1.38,-1.3816,-1.3823,-1.3739,-1.3738,-1.3738,-1.3737,0,0,-1.3578,-1.3606,-1.3614,-1.3626,-1.3648,-1.3668,-1.3696,-1.3721,-1.3735,-1.3753,-1.3777,-1.3811,-1.3802,-1.3816,-1.3817,-1.3836,-1.3875,-1.3824,-1.3824,-1.3833,-1.3923,-1.393,-1.3937,-1.3871,-1.3872,-1.3873,-1.3921,0,-1.3623,-1.3673,-1.3677,-1.3723,-1.3747,-1.3742,-1.3767,-1.3783,-1.379,-1.3811,-1.3819,-1.3843,-1.383,-1.3838,-1.3857,-1.3866,-1.3893,-1.3863,-1.3893,-1.3894,-1.3888,-1.3946,-1.3953,-1.3998,-1.3927,-1.3929,-1.3929,0,-1.3682,-1.3703,-1.3751,-1.377,-1.3781,-1.3803,-1.3826,-1.3847,-1.3865,-1.3869,-1.3885,-1.3883,-1.3913,-1.3893,-1.3933,-1.3913,-1.3925,-1.3932,-1.3933,-1.3936,-1.3914,-1.395,-1.4012,-1.4019,-1.3939,-1.3938,-1.3938,0,-1.3715,-1.3755,-1.379,-1.38,-1.3824,-1.384,-1.385,-1.3867,-1.3882,-1.3903,-1.3913,-1.3936,-1.3949,-1.3967,-1.3971,-1.3957,-1.4012,-1.3992,-1.4015,-1.4015,-1.4027,-1.4026,-1.4092,-1.4035,-1.4035,-1.4035,-1.4035,0,-1.3764,-1.3794,-1.3805,-1.3826,-1.3859,-1.3864,-1.3896,-1.3906,-1.3922,-1.3944,-1.3941,-1.3962,-1.3967,-1.399,-1.3994,-1.4026,-1.4032,-1.4036,-1.4037,-1.4036,-1.4036,-1.4044,-1.4041,-1.4037,-1.4037,-1.4036,-1.4036,0,-1.3807,-1.3816,-1.3853,-1.3873,-1.3879,-1.3902,-1.3919,-1.3939,-1.3947,-1.3975,-1.3982,-1.3994,-1.402,-1.4027,-1.4057,-1.406,-1.4099,-1.4097,-1.4093,-1.4093,-1.4116,-1.4114,-1.4189,-1.4199,-1.4137,-1.4137,-1.4138,0,-1.3838,-1.3861,-1.3884,-1.3899,-1.3911,-1.3935,-1.3951,-1.3956,-1.3973,-1.3996,-1.4013,-1.4039,-1.406,-1.4102,-1.4113,-1.4137,-1.4135,-1.416,-1.4139,-1.4138,-1.4136,-1.4134,-1.4136,-1.4164,-1.4165,-1.4165,-1.4166,0,-1.3892,-1.3895,-1.3918,-1.3943,-1.3962,-1.3982,-1.4,-1.4013,-1.4021,-1.404,-1.4067,-1.4083,-1.4116,-1.4142,-1.4166,-1.4176,-1.4172,-1.4173,-1.4179,-1.4179,-1.4176,-1.4178,-1.4104,-1.417,-1.417,-1.417,-1.4169,-1.4169,-1.3929,-1.395,-1.3969,-1.3995,-1.401,-1.4028,-1.4048,-1.4059,-1.4082,-1.4109,-1.4111,-1.4141,-1.4159,-1.4192,-1.4204,-1.4227,-1.4219,-1.4229,-1.4231,-1.4233,-1.4235,-1.4172,-1.4231,-1.4231,-1.4231,-1.4231,-1.4231,0,-1.3983,-1.3995,-1.4019,-1.4046,-1.4067,-1.4063,-1.4084,-1.4101,-1.4127,-1.4145,-1.4166,-1.4198,-1.4223,-1.4237,-1.4262,-1.4278,-1.4277,-1.4284,-1.4283,-1.4286,-1.4241,-1.4232,-1.4285,-1.4285,-1.4285,-1.4285,-1.4285,-1.4285,-1.4013,-1.4047,-1.4053,-1.4096,-1.4108,-1.4138,-1.415,-1.4167,-1.4181,-1.4217,-1.4238,-1.4247,-1.4264,-1.429,-1.4313,-1.4317,-1.4326,-1.4334,-1.4337,-1.4294,-1.4289,-1.4283,-1.4276,-1.4337,-1.4337,-1.438,-1.438,-1.4381]}]]